{"data":{"norad_id":66686,"epoch":"2026-05-25T03:28:52.743360Z","epoch_age_seconds":55742,"freshness":"FRESH","line1":"1 66686U 25276W   26145.14505490  .00005405  00000+0  26071-3 0  9992","line2":"2 66686  97.4252 219.0641 0006922  82.7641 277.4380 15.19087663 26918","mean_motion":15.19087663,"eccentricity":0.0006922,"inclination_deg":97.4252,"raan_deg":219.0641,"arg_perigee_deg":82.7641,"mean_anomaly_deg":277.438,"bstar":0.00026071,"rev_number":2691,"period_min":94.793739365652,"perigee_km":503.82960383793,"apogee_km":513.36359783492,"semimajor_km":6886.7336008364,"source":"CELESTRAK","updated_at":"2026-05-25T13:38:13.573739Z"}}